Weather History for KGYL - May, 2014

Change the Weather History Date:

Tuesday, May 6, 2014

  Actual Average (KHCD) Record (KHCD)
Temperature  
Mean Temperature 56 °F -  
Max Temperature 66 °F 67 °F 87 °F (2000)
Min Temperature 46 °F 42 °F 25 °F (1989)
Degree Days  
Heating Degree Days 10    
Growing Degree Days 6 (Base 50)    
Moisture  
Dew Point 34 °F    
Average Humidity 39    
Maximum Humidity 66    
Minimum Humidity 27    
Precipitation  
Precipitation 0.00 in - - ()
Sea Level Pressure  
Sea Level Pressure 29.84 in    
Wind  
Wind Speed 12 mph (East)    
Max Wind Speed 23 mph    
Max Gust Speed 33 mph    
Visibility 10 miles    
Events      
Averages and records for this station are not official NWS values.
T = Trace of Precipitation, MM = Missing Value Source: NWS Daily Summary

Daily Weather History Graph

Daily Weather History Graph

Search for Another Location

Airport or City:

Trip Planner

Search our weather history database for the weather conditions in past years. The results will help you decide how hot, cold, wet, or windy it might be!

Date:

Astronomy

May. 06, 2014 Rise Set
Actual Time 5:59 AM CDT 8:27 PM CDT
Civil Twilight 5:26 AM CDT 9:00 PM CDT
Nautical Twilight 4:45 AM CDT 9:41 PM CDT
Astronomical Twilight 3:59 AM CDT 10:28 PM CDT
Moon 12:19 PM CDT (5/6) 1:44 AM CDT (5/6)
Length of Visible Light 15h 34m
Length of Day
14h 28m
Waxing Crescent, 46% of the Moon is Illuminated
May 6
Waxing Crescent
May 6
First Quarter
May 14
Full
May 21
Last Quarter
May 28
New

Hourly Weather History & Observations

Time (CDT) Temp. Windchill Dew Point Humidity Pressure Visibility Wind Dir Wind Speed Gust Speed Precip Events Conditions
12:14 AM 51.8 °F - 35.6 °F 54% 29.94 in 10.0 mi East 4.6 mph - N/A   Clear
12:34 AM 51.4 °F - 34.7 °F 53% 29.93 in 10.0 mi East 4.6 mph - N/A   Clear
12:54 AM 51.1 °F - 34.5 °F 53% 29.94 in 10.0 mi ENE 3.5 mph - N/A   Clear
1:14 AM 50.5 °F - 34.7 °F 55% 29.93 in 10.0 mi East 5.8 mph - N/A   Clear
1:34 AM 48.9 °F - 35.1 °F 59% 29.93 in 10.0 mi East 3.5 mph - N/A   Clear
1:54 AM 48.7 °F - 33.8 °F 56% 29.92 in 10.0 mi ENE 4.6 mph - N/A   Clear
2:14 AM 49.3 °F - 34.2 °F 56% 29.93 in 10.0 mi East 4.6 mph - N/A   Clear
2:35 AM 46.9 °F - 34.7 °F 62% 29.92 in 10.0 mi East 4.6 mph - N/A   Clear
6:54 AM 46.4 °F 41.9 °F 35.6 °F 66% 29.93 in 10.0 mi East 9.2 mph - N/A   Clear
7:14 AM 48.2 °F - 35.8 °F 62% 29.93 in 10.0 mi ESE 9.2 mph - N/A   Clear
7:35 AM 49.6 °F - 34.5 °F 56% 29.93 in 10.0 mi ESE 12.7 mph - N/A   Clear
7:54 AM 50.9 °F - 33.8 °F 52% 29.93 in 10.0 mi ESE 16.1 mph 23.0 mph N/A   Clear
8:14 AM 52.0 °F - 33.1 °F 49% 29.94 in 10.0 mi ESE 15.0 mph 21.9 mph N/A   Clear
9:14 AM 55.4 °F - 31.8 °F 41% 29.95 in 10.0 mi ESE 15.0 mph 21.9 mph N/A   Clear
9:34 AM 56.7 °F - 31.5 °F 38% 29.95 in 10.0 mi ESE 16.1 mph 20.7 mph N/A   Clear
9:54 AM 57.9 °F - 32.0 °F 37% 29.94 in 10.0 mi ESE 17.3 mph - N/A   Clear
10:14 AM 57.2 °F - 31.3 °F 37% 29.92 in 10.0 mi East 20.7 mph - N/A   Clear
10:34 AM 57.6 °F - 31.3 °F 37% 29.91 in 10.0 mi ESE 17.3 mph - N/A   Clear
10:54 AM 58.5 °F - 30.2 °F 34% 29.91 in 10.0 mi ESE 20.7 mph 27.6 mph N/A   Clear
11:15 AM 59.2 °F - 29.1 °F 32% 29.90 in 10.0 mi ESE 23.0 mph 28.8 mph N/A   Clear
11:34 AM 59.9 °F - 28.9 °F 31% 29.88 in 10.0 mi ESE 23.0 mph 26.5 mph N/A   Clear
11:54 AM 60.8 °F - 28.8 °F 30% 29.88 in 10.0 mi ESE 21.9 mph 28.8 mph N/A   Clear
12:15 PM 62.8 °F - 31.6 °F 31% 29.89 in 10.0 mi East 17.3 mph 24.2 mph N/A   Clear
12:34 PM 62.6 °F - 30.6 °F 30% 29.88 in 10.0 mi ESE 17.3 mph 23.0 mph N/A   Clear
12:54 PM 63.1 °F - 31.8 °F 31% 29.87 in 10.0 mi East 16.1 mph - N/A   Clear
1:15 PM 63.3 °F - 31.5 °F 30% 29.85 in 10.0 mi East 19.6 mph 26.5 mph N/A   Clear
1:34 PM 64.0 °F - 30.9 °F 29% 29.83 in 10.0 mi ESE 20.7 mph 25.3 mph N/A   Clear
1:54 PM 65.3 °F - 31.3 °F 28% 29.83 in 10.0 mi ESE 17.3 mph 28.8 mph N/A   Clear
2:14 PM 65.5 °F - 30.6 °F 27% 29.82 in 10.0 mi ESE 21.9 mph 25.3 mph N/A   Clear
2:34 PM 65.3 °F - 31.1 °F 28% 29.80 in 10.0 mi ESE 16.1 mph - N/A   Clear
2:54 PM 65.7 °F - 30.9 °F 27% 29.80 in 10.0 mi ESE 23.0 mph 28.8 mph N/A   Clear
3:14 PM 65.7 °F - 30.7 °F 27% 29.78 in 10.0 mi ESE 23.0 mph 33.4 mph N/A   Clear
3:54 PM 65.8 °F - 31.8 °F 28% 29.77 in 10.0 mi East 18.4 mph 27.6 mph N/A   Clear
4:14 PM 65.1 °F - 31.8 °F 29% 29.77 in 10.0 mi East 20.7 mph 25.3 mph N/A   Clear
4:35 PM 64.8 °F - 32.2 °F 30% 29.75 in 10.0 mi East 16.1 mph 26.5 mph N/A   Clear
4:54 PM 64.4 °F - 32.0 °F 30% 29.77 in 10.0 mi East 20.7 mph 25.3 mph N/A   Clear
5:14 PM 63.9 °F - 32.5 °F 31% 29.77 in 10.0 mi East 21.9 mph 27.6 mph N/A   Scattered Clouds
5:35 PM 63.9 °F - 33.4 °F 32% 29.76 in 10.0 mi East 19.6 mph 24.2 mph N/A   Mostly Cloudy
5:54 PM 64.0 °F - 33.4 °F 32% 29.77 in 10.0 mi East 17.3 mph 24.2 mph N/A   Scattered Clouds
6:14 PM 64.6 °F - 33.4 °F 31% 29.75 in 10.0 mi East 17.3 mph 23.0 mph N/A   Clear
6:34 PM 64.0 °F - 33.6 °F 32% 29.77 in 10.0 mi East 12.7 mph 21.9 mph N/A   Clear
6:54 PM 63.9 °F - 34.9 °F 34% 29.77 in 10.0 mi East 12.7 mph 20.7 mph N/A   Clear
7:14 PM 63.5 °F - 35.1 °F 35% 29.76 in 10.0 mi East 15.0 mph 21.9 mph N/A   Clear
7:34 PM 63.5 °F - 34.5 °F 34% 29.76 in 10.0 mi East 17.3 mph 23.0 mph N/A   Clear
7:54 PM 62.8 °F - 34.9 °F 35% 29.76 in 10.0 mi East 13.8 mph - N/A   Clear
8:14 PM 62.2 °F - 35.2 °F 37% 29.77 in 10.0 mi East 12.7 mph - N/A   Clear
8:34 PM 61.3 °F - 36.5 °F 40% 29.77 in 10.0 mi East 10.4 mph - N/A   Scattered Clouds
8:54 PM 61.3 °F - 36.7 °F 40% 29.79 in 10.0 mi East 8.1 mph - N/A   Mostly Cloudy
9:14 PM 61.2 °F - 37.2 °F 41% 29.79 in 10.0 mi East 8.1 mph - N/A   Overcast
9:34 PM 60.8 °F - 37.6 °F 42% 29.80 in 10.0 mi ENE 6.9 mph - N/A   Overcast
9:54 PM 60.8 °F - 37.6 °F 42% 29.79 in 10.0 mi East 9.2 mph - N/A   Overcast
10:14 PM 60.8 °F - 37.6 °F 42% 29.79 in 10.0 mi East 10.4 mph - N/A   Overcast
10:34 PM 60.8 °F - 37.2 °F 42% 29.78 in 10.0 mi East 11.5 mph 17.3 mph N/A   Overcast
10:54 PM 60.3 °F - 37.0 °F 42% 29.78 in 10.0 mi East 11.5 mph - N/A   Overcast
11:14 PM 60.3 °F - 37.0 °F 42% 29.77 in 10.0 mi East 13.8 mph - N/A   Overcast
11:34 PM 59.9 °F - 37.4 °F 43% 29.76 in 10.0 mi East 15.0 mph - N/A   Overcast
11:54 PM 59.4 °F - 37.4 °F 44% 29.75 in 10.0 mi East 15.0 mph - N/A   Overcast